Weather in Vysokovo

Russia / Yaroslavl Oblast     57°36′21″N   38°54′42″E
temp.,
°C
wind,
m/s
gust,
m/s
humid.,
%
clouds,
%
prec.,
mm/h
press.,
hPa
HPBL,
m
29 june, wed
wed2900:00+10ene25720 0.0 102478
03:00+8ene22750 0.0 102523
06:00+12ene13654 0.0 1025130
09:00+17ne23431 0.0 10241086
12:00+20ene23340 0.0 10231744
15:00+21ne23330 0.0 10221926
18:00+21ne22400 0.0 10211606
21:00+13n12725 0.0 102116
30 june, thu
thu3000:00+12nnw116598 0.0 102110
03:00+10nw2266100 0.0 102125
06:00+12nw26650 0.0 1020167
09:00+19nnw474412 0.0 10191060
12:00+22nnw5732100 0.0 10191746
15:00+22nnw57385 0.0 10181501
18:00+22n48497 0.0 10172047
21:00+17nnw237227 0.0 101861
1 july, fri
fri100:00+13nne23871 0.0 101953
03:00+11ene23790 0.0 102043
06:00+13ene23685 0.0 1021128
09:00+19ne24435 0.0 10211037
12:00+22ne35332 0.0 10211824
15:00+23ne353253 0.0 10202039
18:00+22nne24414 0.0 10201860
21:00+15n11725 0.0 102011
2 july, sat
sat200:00+13w1167100 0.0 102012
03:00+12wnw256823 0.0 102087
06:00+16w386336 0.0 1019228
09:00+22wnw36549 0.0 1017545
12:00+27nnw57465 0.0 10151654
15:00+28nnw57417 0.0 10152233
18:00+26nnw47485 0.0 10141703
21:00+19n22770 0.0 101526
3 july, sun
sun300:00+15ne22831 0.0 101630
03:00+13ese22950 0.0 101726
06:00+16ese11795 0.0 1017103
09:00+22e11565 0.0 1016664
12:00+26n23400 0.0 10151735
15:00+27nnw34310 0.0 10142079
18:00+25nnw35450 0.0 1014910
21:00+18n11681 0.0 101411